Fort Drum, NY

3:42 AM EST on November 21, 2017 (GMT -0500)
Wheeler-Sack Army Air Field

Weather History for KGTB - June, 2013

Change the Weather History Date:

Sunday, June 30, 2013

  Actual Average Record
Temperature  
Mean Temperature 66 °F -  
Max Temperature 78 °F 75 °F 87 °F (1997)
Min Temperature 56 °F 56 °F 45 °F (2007)
Cooling Degree Days 2    
Growing Degree Days 16 (Base 50)    
Moisture  
Dew Point 61 °F    
Average Humidity 85    
Maximum Humidity 100    
Minimum Humidity 60    
Precipitation  
Precipitation 0.00 in - - ()
Sea Level Pressure  
Sea Level Pressure 29.82 in    
Wind  
Wind Speed 3 mph (East)    
Max Wind Speed 10 mph    
Max Gust Speed -    
Visibility 10 miles    
Events      
Averages and records for this station are not official NWS values.
T = Trace of Precipitation, MM = Missing Value Source: NWS Daily Summary

Daily Weather History Graph

Daily Weather History Graph

Search for Another Location

Airport or City:

Trip Planner

Search our weather history database for the weather conditions in past years. The results will help you decide how hot, cold, wet, or windy it might be!

Date:

Astronomy

Jun. 30, 2013 Rise Set
Actual Time 5:23 AM EDT 8:49 PM EDT
Civil Twilight 4:47 AM EDT 9:25 PM EDT
Nautical Twilight 3:59 AM EDT 10:13 PM EDT
Astronomical Twilight 2:59 AM EDT 11:13 PM EDT
Moon 12:31 AM EDT (6/30) 1:52 PM EDT (6/30)
Length of Visible Light 16h 38m
Length of Day
15h 26m
Last Quarter, 45% of the Moon is Illuminated
Jun 30
Last Quarter
Jul 8
New
Jul 15
First Quarter
Jul 22
Full
Jul 29
Last Quarter

Hourly Weather History & Observations

Time (EDT) Temp. Dew Point Humidity Pressure Visibility Wind Dir Wind Speed Gust Speed Precip Events Conditions
12:58 AM 57.9 °F 57.9 °F 100% 29.70 in 10.0 mi SSW 1.2 mph - N/A   Clear
1:58 AM 57.0 °F 57.0 °F 100% 29.71 in 10.0 mi SSE 2.3 mph - N/A   Clear
2:58 AM 58.1 °F 58.1 °F 100% 29.72 in 10.0 mi SSE 2.3 mph - N/A   Clear
3:58 AM 57.2 °F 57.2 °F 100% 29.73 in 10.0 mi South 3.5 mph - N/A   Clear
4:58 AM 56.8 °F 56.8 °F 100% 29.75 in 10.0 mi SE 2.3 mph - N/A   Mostly Cloudy
5:53 AM 59.0 °F 59.0 °F 100% 29.77 in 10.0 mi South 2.3 mph - N/A   Overcast
5:58 AM 58.6 °F 58.6 °F 100% 29.77 in 10.0 mi South 2.3 mph - N/A   Overcast
6:28 AM 59.0 °F 59.0 °F 100% 29.78 in 10.0 mi SSE 4.6 mph - N/A   Overcast
6:49 AM 60.8 °F 59.0 °F 94% 29.79 in 10.0 mi ESE 1.2 mph - N/A   Light Drizzle
6:54 AM 60.8 °F 60.8 °F 100% 29.78 in 9.0 mi Calm Calm - N/A   Light Drizzle
6:58 AM 60.4 °F 60.1 °F 99% 29.78 in 8.0 mi SSE 2.3 mph - 0.00 in   Light Drizzle
7:13 AM 60.8 °F 60.8 °F 100% 29.79 in 9.0 mi South 2.3 mph - N/A   Light Drizzle
7:17 AM 60.8 °F 60.8 °F 100% 29.79 in 10.0 mi SSE 2.3 mph - N/A   Overcast
7:58 AM 61.9 °F 61.9 °F 100% 29.80 in 10.0 mi SE 3.5 mph - 0.00 in   Overcast
8:58 AM 64.8 °F 62.6 °F 93% 29.82 in 10.0 mi East 2.3 mph - N/A   Overcast
9:23 AM 66.2 °F 62.6 °F 88% 29.82 in 10.0 mi East 3.5 mph - N/A   Mostly Cloudy
9:58 AM 67.8 °F 62.8 °F 84% 29.83 in 10.0 mi Variable 2.3 mph - N/A   Mostly Cloudy
10:58 AM 70.5 °F 62.4 °F 75% 29.83 in 10.0 mi SE 2.3 mph - N/A   Partly Cloudy
11:13 AM 71.6 °F 62.6 °F 73% 29.83 in 10.0 mi Calm Calm - N/A   Scattered Clouds
11:18 AM 71.6 °F 62.6 °F 73% 29.83 in 10.0 mi NE 4.6 mph - N/A   Mostly Cloudy
11:58 AM 71.6 °F 62.6 °F 73% 29.83 in 10.0 mi North 4.6 mph - N/A   Mostly Cloudy
12:58 PM 75.2 °F 63.1 °F 66% 29.84 in 10.0 mi Variable 5.8 mph - N/A   Mostly Cloudy
1:58 PM 75.7 °F 63.0 °F 64% 29.84 in 10.0 mi Variable 6.9 mph - N/A   Scattered Clouds
2:58 PM 77.5 °F 62.6 °F 60% 29.84 in 10.0 mi WNW 8.1 mph - N/A   Partly Cloudy
3:58 PM 76.5 °F 62.2 °F 61% 29.84 in 10.0 mi Variable 5.8 mph - N/A   Scattered Clouds
4:58 PM 77.5 °F 62.6 °F 60% 29.84 in 10.0 mi North 10.4 mph - N/A   Partly Cloudy
5:58 PM 74.7 °F 62.6 °F 66% 29.86 in 10.0 mi North 6.9 mph - N/A   Overcast
6:58 PM 75.2 °F 62.2 °F 64% 29.86 in 10.0 mi North 5.8 mph - N/A   Clear
7:58 PM 72.3 °F 62.8 °F 72% 29.88 in 10.0 mi North 3.5 mph - N/A   Clear
8:58 PM 69.1 °F 62.1 °F 78% 29.89 in 10.0 mi NNE 4.6 mph - N/A   Partly Cloudy
9:04 PM 68.0 °F 62.6 °F 83% 29.90 in 10.0 mi NNE 4.6 mph - N/A   Light Drizzle
9:28 PM 68.0 °F 62.6 °F 83% 29.91 in 10.0 mi NNE 5.8 mph - N/A   Partly Cloudy
9:58 PM 67.5 °F 61.5 °F 81% 29.93 in 10.0 mi NE 9.2 mph - 0.00 in   Partly Cloudy
10:58 PM 65.3 °F 61.2 °F 86% 29.93 in 10.0 mi NE 6.9 mph - N/A   Scattered Clouds
11:58 PM 64.0 °F 61.3 °F 91% 29.94 in 10.0 mi ENE 3.5 mph - N/A   Mostly Cloudy